NOZ200 ENVA-ENTC

Flight info

Callsign NOZ200
Flight time 1h 6m
Altitude 37000
Route NIGEX DCT PENNO DCT ATWEG
Aircraft B738/M-SDE2E3FGHIRWXY/LB1

Departure

Time 2026-05-06 21:39
Airport Trondheim Airport, Værnes (ENVA)

Arrival

Time 2026-05-06 22:45
Airport Tromsø Airport (ENTC)
Time Latitude Longitude Altitude Speed Heading
2026-05-06 21:21 63.45500 10.91583 90 ft 0 kts 179°
2026-05-06 21:33 63.45501 10.91583 38 ft 2 kts 179°
2026-05-06 21:33 63.45520 10.91582 38 ft 3 kts 179°
2026-05-06 21:33 63.45538 10.91582 38 ft 3 kts 179°
2026-05-06 21:33 63.45546 10.91581 38 ft 0 kts 179°
2026-05-06 21:35 63.45544 10.91580 38 ft 1 kts 188°
2026-05-06 21:35 63.45543 10.91567 38 ft 1 kts 258°
2026-05-06 21:35 63.45554 10.91547 36 ft 5 kts 321°
2026-05-06 21:36 63.45593 10.91442 38 ft 12 kts 288°
2026-05-06 21:36 63.45597 10.91202 35 ft 19 kts 270°
2026-05-06 21:36 63.45597 10.90858 34 ft 24 kts 270°
2026-05-06 21:36 63.45597 10.90496 32 ft 23 kts 270°
2026-05-06 21:37 63.45597 10.90147 30 ft 22 kts 270°
2026-05-06 21:37 63.45599 10.89808 28 ft 22 kts 271°
2026-05-06 21:37 63.45615 10.89540 28 ft 16 kts 306°
2026-05-06 21:37 63.45685 10.89352 28 ft 15 kts 308°
2026-05-06 21:38 63.45750 10.89291 28 ft 10 kts 34°
2026-05-06 21:38 63.45764 10.89393 28 ft 0 kts 88°
2026-05-06 21:38 63.45764 10.89395 28 ft 1 kts 88°
2026-05-06 21:38 63.45764 10.89424 28 ft 7 kts 89°
2026-05-06 21:39 63.45765 10.89764 29 ft 41 kts 90°
2026-05-06 21:39 63.45761 10.91053 34 ft 123 kts 90°
2026-05-06 21:39 63.45728 10.93431 261 ft 171 kts 94°
2026-05-06 21:39 63.45692 10.96174 1160 ft 184 kts 90°
2026-05-06 21:40 63.45712 10.99053 2099 ft 191 kts 90°
2026-05-06 21:40 63.45715 11.02160 2634 ft 207 kts 90°
2026-05-06 21:40 63.45717 11.05448 3157 ft 216 kts 90°
2026-05-06 21:40 63.45720 11.08848 3744 ft 221 kts 89°
2026-05-06 21:41 63.46071 11.12280 4063 ft 237 kts 57°
2026-05-06 21:41 63.47327 11.14667 4553 ft 245 kts 21°
2026-05-06 21:41 63.49044 11.15511 4860 ft 263 kts
2026-05-06 21:41 63.50893 11.15835 5620 ft 268 kts
2026-05-06 21:42 63.52755 11.16109 6542 ft 269 kts
2026-05-06 21:42 63.54638 11.16416 7361 ft 273 kts
2026-05-06 21:42 63.56528 11.16763 8162 ft 277 kts
2026-05-06 21:42 63.58464 11.17141 8962 ft 281 kts
2026-05-06 21:43 63.60401 11.17529 9759 ft 285 kts
2026-05-06 21:43 63.62391 11.18088 10397 ft 296 kts 14°
2026-05-06 21:43 63.64276 11.20346 10601 ft 321 kts 37°
2026-05-06 21:43 63.66092 11.23565 10812 ft 343 kts 38°
2026-05-06 21:44 63.67989 11.27006 11293 ft 354 kts 38°
2026-05-06 21:44 63.69918 11.30510 12019 ft 358 kts 38°
2026-05-06 21:44 63.71867 11.34033 12809 ft 360 kts 38°
2026-05-06 21:44 63.73831 11.37565 13566 ft 363 kts 38°
2026-05-06 21:45 63.75818 11.41127 14237 ft 367 kts 38°
2026-05-06 21:45 63.77828 11.44724 14887 ft 370 kts 38°
2026-05-06 21:45 63.79856 11.48355 15541 ft 373 kts 38°
2026-05-06 21:45 63.81900 11.52018 16197 ft 376 kts 38°
2026-05-06 21:46 63.83934 11.55668 16834 ft 380 kts 38°
2026-05-06 21:46 63.86014 11.59408 17481 ft 383 kts 38°
2026-05-06 21:46 63.88112 11.63186 18107 ft 387 kts 38°
2026-05-06 21:46 63.90230 11.67009 18651 ft 392 kts 38°
2026-05-06 21:47 63.92375 11.70887 19134 ft 396 kts 38°
2026-05-06 21:47 63.94538 11.74807 19723 ft 398 kts 38°
2026-05-06 21:47 63.95971 11.77409 20109 ft 399 kts 38°
2026-05-06 21:47 63.98888 11.82716 20833 ft 403 kts 38°
2026-05-06 21:48 64.00336 11.85354 21279 ft 402 kts 38°
2026-05-06 21:48 64.02521 11.89340 21883 ft 403 kts 38°
2026-05-06 21:48 64.04719 11.93361 22359 ft 407 kts 38°
2026-05-06 21:48 64.07782 11.98351 22952 ft 411 kts 23°
2026-05-06 21:49 64.10522 12.00119 23452 ft 410 kts
2026-05-06 21:49 64.12442 12.00279 23771 ft 410 kts 358°
2026-05-06 21:49 64.15304 12.00210 24125 ft 413 kts 358°
2026-05-06 21:49 64.18157 12.00103 24430 ft 418 kts 358°
2026-05-06 21:50 64.21079 12.00015 24768 ft 421 kts 358°
2026-05-06 21:50 64.24019 11.99962 25128 ft 424 kts 358°
2026-05-06 21:50 64.26982 11.99936 25454 ft 427 kts 358°
2026-05-06 21:50 64.29968 11.99925 25783 ft 431 kts 358°
2026-05-06 21:51 64.32977 11.99918 26093 ft 435 kts 358°
2026-05-06 21:51 64.36013 11.99909 26381 ft 438 kts 358°
2026-05-06 21:51 64.39075 12.00182 26694 ft 443 kts
2026-05-06 21:51 64.42018 12.02382 27000 ft 449 kts 22°
2026-05-06 21:52 64.44873 12.05343 27348 ft 451 kts 22°
2026-05-06 21:52 64.47709 12.08284 27603 ft 454 kts 22°
2026-05-06 21:52 64.50610 12.11271 27865 ft 457 kts 22°
2026-05-06 21:52 64.53531 12.14254 28146 ft 460 kts 22°
2026-05-06 21:53 64.56474 12.17241 28421 ft 463 kts 22°
2026-05-06 21:53 64.59440 12.20240 28678 ft 466 kts 22°
2026-05-06 21:53 64.62421 12.23252 28933 ft 468 kts 22°
2026-05-06 21:53 64.65420 12.26285 29182 ft 471 kts 22°
2026-05-06 21:54 64.68436 12.29341 29432 ft 474 kts 22°
2026-05-06 21:54 64.71465 12.32418 29676 ft 476 kts 22°
2026-05-06 21:54 64.74507 12.35516 29935 ft 478 kts 22°
2026-05-06 21:54 64.77559 12.38634 30252 ft 478 kts 22°
2026-05-06 21:55 64.80555 12.41704 30620 ft 475 kts 22°
2026-05-06 21:55 64.83578 12.44809 30972 ft 474 kts 22°
2026-05-06 21:55 64.86603 12.47923 31203 ft 475 kts 22°
2026-05-06 21:55 64.89637 12.51054 31439 ft 477 kts 22°
2026-05-06 21:56 64.92676 12.54197 31715 ft 477 kts 22°
2026-05-06 21:56 64.95712 12.57346 32034 ft 476 kts 22°
2026-05-06 21:56 64.98744 12.60499 32308 ft 476 kts 22°
2026-05-06 21:56 65.01782 12.63665 32543 ft 477 kts 22°
2026-05-06 21:57 65.04823 12.66842 32791 ft 478 kts 22°
2026-05-06 21:57 65.07858 12.70021 33086 ft 477 kts 22°
2026-05-06 21:57 65.10850 12.73163 33395 ft 476 kts 22°
2026-05-06 21:57 65.13880 12.76354 33670 ft 476 kts 22°
2026-05-06 21:58 65.16916 12.79557 33890 ft 477 kts 22°
2026-05-06 21:58 65.19948 12.82765 34078 ft 478 kts 22°
2026-05-06 21:58 65.22989 12.85990 34297 ft 478 kts 22°
2026-05-06 21:58 65.26024 12.89217 34513 ft 477 kts 22°
2026-05-06 21:59 65.29057 12.92451 34715 ft 478 kts 22°
2026-05-06 21:59 65.32093 12.95696 34891 ft 478 kts 22°
2026-05-06 21:59 65.35135 12.98954 35084 ft 478 kts 22°
2026-05-06 21:59 65.38131 13.02172 35310 ft 478 kts 22°
2026-05-06 22:00 65.41160 13.05435 35531 ft 477 kts 22°
2026-05-06 22:00 65.44194 13.08710 35706 ft 478 kts 22°
2026-05-06 22:00 65.47227 13.11993 35859 ft 479 kts 22°
2026-05-06 22:00 65.50263 13.15288 36042 ft 479 kts 22°
2026-05-06 22:01 65.53297 13.18588 36244 ft 478 kts 22°
2026-05-06 22:01 65.56328 13.21895 36457 ft 478 kts 22°
2026-05-06 22:01 65.59354 13.25204 36631 ft 478 kts 23°
2026-05-06 22:01 65.62385 13.28526 36769 ft 478 kts 22°
2026-05-06 22:02 65.65420 13.31862 36925 ft 479 kts 23°
2026-05-06 22:02 65.68420 13.35167 36969 ft 481 kts 23°
2026-05-06 22:02 65.74493 13.41886 36961 ft 478 kts 23°
2026-05-06 22:03 65.80518 13.48587 36955 ft 474 kts 23°
2026-05-06 22:03 65.86499 13.55273 36966 ft 472 kts 23°
2026-05-06 22:04 65.92459 13.61969 36958 ft 471 kts 23°
2026-05-06 22:04 65.98412 13.68690 36965 ft 471 kts 23°
2026-05-06 22:05 66.04336 13.75414 36945 ft 473 kts 23°
2026-05-06 22:05 66.10304 13.82224 36947 ft 474 kts 24°
2026-05-06 22:06 66.16295 13.89095 36944 ft 476 kts 24°
2026-05-06 22:06 66.22258 13.95970 36942 ft 477 kts 24°
2026-05-06 22:07 66.28280 14.02950 36953 ft 478 kts 24°
2026-05-06 22:07 66.34270 14.09930 36956 ft 479 kts 24°
2026-05-06 22:08 66.40308 14.17003 36969 ft 479 kts 24°
2026-05-06 22:08 66.46338 14.24105 36964 ft 479 kts 24°
2026-05-06 22:09 66.52365 14.31241 36967 ft 479 kts 24°
2026-05-06 22:09 66.58349 14.38364 36967 ft 479 kts 24°
2026-05-06 22:10 66.64361 14.45560 36949 ft 478 kts 24°
2026-05-06 22:10 66.70353 14.52772 36945 ft 477 kts 24°
2026-05-06 22:11 66.76334 14.60007 36943 ft 476 kts 24°
2026-05-06 22:11 66.82299 14.67263 36944 ft 475 kts 24°
2026-05-06 22:12 66.88210 14.74492 36945 ft 474 kts 24°
2026-05-06 22:12 66.94156 14.81804 36939 ft 474 kts 25°
2026-05-06 22:13 67.00083 14.89132 36935 ft 473 kts 25°
2026-05-06 22:13 67.06000 14.96488 36926 ft 472 kts 25°
2026-05-06 22:14 67.11902 15.03863 36947 ft 472 kts 25°
2026-05-06 22:14 67.17768 15.11236 36941 ft 472 kts 25°
2026-05-06 22:15 67.23667 15.18689 36943 ft 472 kts 25°
2026-05-06 22:15 67.29570 15.26189 36945 ft 473 kts 25°
2026-05-06 22:16 67.35476 15.33735 36944 ft 474 kts 25°
2026-05-06 22:16 67.41349 15.41280 36944 ft 475 kts 25°
2026-05-06 22:17 67.47272 15.48931 36950 ft 475 kts 25°
2026-05-06 22:17 67.53193 15.56624 36938 ft 476 kts 25°
2026-05-06 22:18 67.59117 15.64362 36942 ft 476 kts 25°
2026-05-06 22:18 67.65033 15.72136 36929 ft 475 kts 25°
2026-05-06 22:19 67.68004 15.76055 36526 ft 481 kts 25°
2026-05-06 22:19 67.70997 15.80015 36025 ft 480 kts 26°
2026-05-06 22:19 67.73972 15.83963 35416 ft 479 kts 26°
2026-05-06 22:19 67.76945 15.87920 34787 ft 479 kts 26°
2026-05-06 22:20 67.79921 15.91893 34113 ft 480 kts 26°
2026-05-06 22:20 67.82896 15.95874 33511 ft 477 kts 26°
2026-05-06 22:20 67.85798 15.99771 33006 ft 471 kts 26°
2026-05-06 22:20 67.88687 16.03659 32518 ft 466 kts 26°
2026-05-06 22:21 67.91564 16.07542 32038 ft 461 kts 26°
2026-05-06 22:21 67.94401 16.11392 31615 ft 455 kts 27°
2026-05-06 22:21 67.97168 16.15307 31323 ft 446 kts 28°
2026-05-06 22:21 67.99884 16.19263 30900 ft 442 kts 28°
2026-05-06 22:22 68.02559 16.23206 30485 ft 438 kts 29°
2026-05-06 22:22 68.05212 16.27130 30055 ft 434 kts 29°
2026-05-06 22:22 68.07844 16.31023 29529 ft 430 kts 29°
2026-05-06 22:22 68.10443 16.34864 29076 ft 424 kts 29°
2026-05-06 22:23 68.12977 16.38611 28622 ft 419 kts 29°
2026-05-06 22:23 68.15510 16.42360 28189 ft 413 kts 28°
2026-05-06 22:23 68.18014 16.46069 27752 ft 408 kts 29°
2026-05-06 22:23 68.20488 16.49743 27319 ft 404 kts 29°
2026-05-06 22:24 68.22932 16.53382 26890 ft 400 kts 29°
2026-05-06 22:24 68.25353 16.56994 26475 ft 395 kts 29°
2026-05-06 22:24 68.27744 16.60573 26037 ft 392 kts 29°
2026-05-06 22:24 68.30116 16.64130 25632 ft 388 kts 29°
2026-05-06 22:25 68.32466 16.67662 25206 ft 385 kts 29°
2026-05-06 22:25 68.34797 16.71176 24793 ft 382 kts 29°
2026-05-06 22:25 68.37076 16.74618 24401 ft 379 kts 29°
2026-05-06 22:25 68.39370 16.78090 23998 ft 376 kts 29°
2026-05-06 22:26 68.41639 16.81534 23597 ft 373 kts 29°
2026-05-06 22:26 68.43898 16.84971 23147 ft 371 kts 29°
2026-05-06 22:26 68.46137 16.88384 22733 ft 367 kts 29°
2026-05-06 22:26 68.48349 16.91764 22329 ft 363 kts 29°
2026-05-06 22:27 68.50536 16.95115 21939 ft 359 kts 29°
2026-05-06 22:27 68.52708 16.98449 21548 ft 356 kts 29°
2026-05-06 22:27 68.54829 17.01711 21163 ft 353 kts 28°
2026-05-06 22:27 68.56961 17.04998 20760 ft 351 kts 28°
2026-05-06 22:28 68.59079 17.08270 20398 ft 348 kts 28°
2026-05-06 22:28 68.61184 17.11530 19998 ft 347 kts 28°
2026-05-06 22:28 68.63281 17.14784 19615 ft 345 kts 28°
2026-05-06 22:28 68.65368 17.18029 19231 ft 344 kts 28°
2026-05-06 22:29 68.67440 17.21259 18870 ft 342 kts 28°
2026-05-06 22:29 68.69503 17.24480 18494 ft 341 kts 28°
2026-05-06 22:29 68.71562 17.27702 18119 ft 340 kts 28°
2026-05-06 22:29 68.73609 17.30913 17696 ft 338 kts 28°
2026-05-06 22:30 68.75621 17.34076 17338 ft 336 kts 28°
2026-05-06 22:30 68.77643 17.37261 16957 ft 334 kts 28°
2026-05-06 22:30 68.79656 17.40439 16573 ft 333 kts 28°
2026-05-06 22:30 68.81533 17.43407 16251 ft 331 kts 28°
2026-05-06 22:31 68.83528 17.46570 15871 ft 330 kts 28°
2026-05-06 22:31 68.85510 17.49716 15520 ft 328 kts 28°
2026-05-06 22:31 68.87481 17.52853 15149 ft 326 kts 28°
2026-05-06 22:31 68.89445 17.55985 14786 ft 325 kts 28°
2026-05-06 22:32 68.91397 17.59105 14427 ft 323 kts 28°
2026-05-06 22:32 68.93341 17.62219 14070 ft 322 kts 28°
2026-05-06 22:32 68.95278 17.65326 13716 ft 321 kts 28°
2026-05-06 22:32 68.97184 17.68393 13337 ft 320 kts 28°
2026-05-06 22:33 68.99107 17.71489 12969 ft 318 kts 28°
2026-05-06 22:33 69.01020 17.74575 12610 ft 317 kts 28°
2026-05-06 22:33 69.02925 17.77656 12247 ft 316 kts 28°
2026-05-06 22:33 69.04825 17.80736 11887 ft 315 kts 28°
2026-05-06 22:34 69.06689 17.83910 11570 ft 313 kts 35°
2026-05-06 22:34 69.08324 17.87889 11269 ft 311 kts 43°
2026-05-06 22:34 69.09847 17.92173 10923 ft 310 kts 44°
2026-05-06 22:34 69.11351 17.96508 10563 ft 310 kts 45°
2026-05-06 22:35 69.12844 18.00803 10348 ft 303 kts 44°
2026-05-06 22:35 69.14302 18.04967 10205 ft 295 kts 44°
2026-05-06 22:35 69.15710 18.08955 10089 ft 288 kts 44°
2026-05-06 22:35 69.17107 18.12887 9970 ft 281 kts 44°
2026-05-06 22:36 69.18475 18.16729 9782 ft 277 kts 44°
2026-05-06 22:36 69.19842 18.20560 9481 ft 277 kts 44°
2026-05-06 22:36 69.21200 18.24372 9219 ft 275 kts 44°
2026-05-06 22:36 69.22464 18.27921 8950 ft 274 kts 44°
2026-05-06 22:37 69.23810 18.31708 8681 ft 273 kts 43°
2026-05-06 22:37 69.25148 18.35477 8406 ft 272 kts 44°
2026-05-06 22:37 69.26482 18.39240 8131 ft 270 kts 44°
2026-05-06 22:37 69.27810 18.42990 7865 ft 270 kts 44°
2026-05-06 22:38 69.29134 18.46737 7582 ft 269 kts 44°
2026-05-06 22:38 69.30432 18.50423 7337 ft 266 kts 44°
2026-05-06 22:38 69.31733 18.54110 7074 ft 265 kts 42°
2026-05-06 22:38 69.33138 18.57348 6988 ft 255 kts 33°
2026-05-06 22:39 69.34584 18.60109 6880 ft 247 kts 31°
2026-05-06 22:39 69.36000 18.62765 6785 ft 241 kts 32°
2026-05-06 22:39 69.37378 18.65387 6688 ft 237 kts 32°
2026-05-06 22:39 69.38737 18.68010 6568 ft 237 kts 32°
2026-05-06 22:40 69.40118 18.70693 6329 ft 242 kts 33°
2026-05-06 22:40 69.41510 18.73412 6072 ft 243 kts 33°
2026-05-06 22:40 69.42903 18.76136 5820 ft 243 kts 33°
2026-05-06 22:40 69.44406 18.78042 5559 ft 240 kts
2026-05-06 22:41 69.47599 18.78133 5167 ft 228 kts 14°
2026-05-06 22:41 69.49132 18.79193 4782 ft 227 kts 11°
2026-05-06 22:41 69.50671 18.80154 4391 ft 225 kts 12°
2026-05-06 22:42 69.52199 18.81149 3979 ft 225 kts 12°
2026-05-06 22:42 69.53713 18.82156 3596 ft 219 kts 12°
2026-05-06 22:42 69.55164 18.83125 3201 ft 209 kts 12°
2026-05-06 22:42 69.56530 18.84036 3019 ft 192 kts 13°
2026-05-06 22:43 69.57781 18.84869 2715 ft 183 kts 13°
2026-05-06 22:43 69.59013 18.85690 2380 ft 181 kts 13°
2026-05-06 22:43 69.60240 18.86506 2044 ft 181 kts 13°
2026-05-06 22:43 69.61456 18.87316 1658 ft 178 kts 13°
2026-05-06 22:44 69.62626 18.88096 1322 ft 166 kts 13°
2026-05-06 22:44 69.63725 18.88827 987 ft 157 kts 13°
2026-05-06 22:44 69.64753 18.89504 723 ft 145 kts 13°
2026-05-06 22:44 69.65681 18.90098 515 ft 135 kts 14°
2026-05-06 22:45 69.66593 18.90713 246 ft 133 kts 13°
2026-05-06 22:45 69.67493 18.91321 49 ft 131 kts 14°
2026-05-06 22:45 69.68254 18.91836 26 ft 85 kts 13°
2026-05-06 22:45 69.68617 18.92078 22 ft 24 kts 13°
2026-05-06 22:46 69.68696 18.92131 21 ft 11 kts 13°
2026-05-06 22:46 69.68755 18.92092 19 ft 7 kts 303°
2026-05-06 22:46 69.68770 18.91941 19 ft 10 kts 284°
2026-05-06 22:46 69.68767 18.91726 20 ft 11 kts 223°
2026-05-06 22:47 69.68691 18.91659 21 ft 14 kts 193°
2026-05-06 22:47 69.68597 18.91598 25 ft 15 kts 193°
2026-05-06 22:47 69.68482 18.91520 25 ft 18 kts 193°
2026-05-06 22:47 69.68357 18.91499 26 ft 18 kts 180°
2026-05-06 22:48 69.68239 18.91439 28 ft 17 kts 193°
2026-05-06 22:48 69.68123 18.91364 31 ft 16 kts 193°
2026-05-06 22:48 69.68035 18.91281 33 ft 9 kts 228°
2026-05-06 22:48 69.68037 18.91104 36 ft 9 kts 282°
2026-05-06 22:49 69.68046 18.90988 35 ft 3 kts 282°
2026-05-06 22:49 69.68046 18.90977 36 ft 0 kts 282°